#timestamp,LO_Frequency,Hit,Temp,Hum 
1487412015.9,286047010.4,N,0.0,0.0
1487412035.7,286047008.6,N,0.0,0.0
1487412055.5,286047011.9,N,0.0,0.0
1487412075.4,286047014.0,N,0.0,0.0
1487412095.2,286047011.3,N,0.0,0.0
1487412115.0,286047013.7,N,0.0,0.0
1487412115.9,286047013.7,N,0.0,0.0
1487412135.8,286047013.9,N,0.0,0.0
1487412155.6,286047010.5,N,0.0,0.0
1487412175.4,286047010.1,N,0.0,0.0
1487412195.3,286047011.6,N,0.0,0.0
1487412215.1,286047012.2,N,0.0,0.0
1487412235.8,286047011.4,N,0.0,0.0
1487412255.7,286047012.3,N,0.0,0.0
1487412275.5,286047014.0,N,0.0,0.0
1487412295.3,286047014.8,N,0.0,0.0
1487412315.2,286047015.6,N,0.0,0.0
1487412335.9,286047012.9,N,0.0,0.0
1487412355.7,286047017.1,N,0.0,0.0
1487412375.6,286047016.6,N,0.0,0.0
1487412395.4,286047016.6,N,0.0,0.0
1487412415.2,286047016.5,N,0.0,0.0
1487412435.1,286047017.4,N,0.0,0.0
1487412436.0,286047017.4,N,0.0,0.0
1487412455.8,286047020.3,N,0.0,0.0
1487412475.6,286047016.7,N,0.0,0.0
1487412495.5,286047018.8,N,0.0,0.0
1487412515.3,286047017.4,N,0.0,0.0
1487412535.7,286047019.7,Y,0.0,0.0
1487412555.5,286047011.3,N,0.0,0.0
1487412575.3,286047012.7,N,0.0,0.0
1487412595.2,286047014.0,N,0.0,0.0
1487412615.9,286047013.1,N,0.0,0.0
1487412635.7,286047012.8,N,0.0,0.0
1487412655.6,286047013.4,N,0.0,0.0
1487412675.1,286047015.0,N,0.0,0.0
1487412676.0,286047015.0,N,0.0,0.0
1487412695.8,286047015.4,N,0.0,0.0
1487412715.6,286047014.2,N,0.0,0.0
1487412735.5,286047016.8,N,0.0,0.0
1487412755.3,286047015.5,N,0.0,0.0
1487412775.1,286047013.5,N,0.0,0.0
1487412795.9,286047012.9,N,0.0,0.0
1487412815.7,286047016.6,N,0.0,0.0
1487412835.5,286047023.7,Y,0.0,0.0
1487412855.4,286047006.1,N,0.0,0.0
1487412875.2,286047003.3,N,0.0,0.0
1487412895.0,286047006.1,N,0.0,0.0
1487412895.9,286047006.1,N,0.0,0.0
1487412915.8,286047007.1,N,0.0,0.0
1487412935.6,286047006.4,N,0.0,0.0
1487412955.4,286047005.5,N,0.0,0.0
1487412975.3,286047005.6,N,0.0,0.0
1487412995.1,286047007.1,N,0.0,0.0
1487413015.8,286047007.9,N,0.0,0.0
1487413035.7,286047008.4,N,0.0,0.0
1487413055.5,286047008.6,N,0.0,0.0
1487413075.3,286047006.2,N,0.0,0.0
1487413095.6,286047015.4,Y,0.0,0.0
1487413115.4,286046998.9,N,0.0,0.0
1487413135.3,286046999.6,N,0.0,0.0
1487413155.1,286046998.8,N,0.0,0.0
1487413156.0,286046998.8,N,0.0,0.0
1487413175.8,286046998.1,N,0.0,0.0
1487413195.7,286047000.0,N,0.0,0.0
1487413215.5,286046998.5,N,0.0,0.0
1487413235.3,286047000.8,N,0.0,0.0
1487413255.2,286046999.7,N,0.0,0.0
1487413275.9,286047000.2,N,0.0,0.0
1487413295.7,286047002.1,N,0.0,0.0
1487413315.6,286047003.8,N,0.0,0.0
1487413335.4,286047005.7,N,0.0,0.0
1487413355.2,286047000.6,N,0.0,0.0
1487413375.0,286046997.8,N,0.0,0.0
1487413376.0,286046997.8,N,0.0,0.0
1487413395.7,286046997.5,N,0.0,0.0
1487413415.5,286046999.3,N,0.0,0.0
1487413435.3,286046996.7,N,0.0,0.0
1487413455.2,286046999.5,N,0.0,0.0
1487413475.9,286047000.8,N,0.0,0.0
1487413495.7,286047000.7,N,0.0,0.0
1487413515.6,286046995.0,N,0.0,0.0
1487413535.4,286046999.1,N,0.0,0.0
1487413555.2,286046996.5,N,0.0,0.0
1487413575.1,286047000.1,N,0.0,0.0
1487413576.0,286047000.1,N,0.0,0.0
1487413595.8,286047001.6,N,0.0,0.0
1487413615.6,286046998.2,N,0.0,0.0
1487413635.4,286046996.6,N,0.0,0.0
1487413655.3,286046997.7,N,0.0,0.0
1487413675.1,286046995.9,N,0.0,0.0
1487413695.8,286046995.9,N,0.0,0.0
1487413715.7,286046993.7,N,0.0,0.0
1487413735.5,286046994.2,N,0.0,0.0
1487413755.3,286046993.0,N,0.0,0.0
1487413775.2,286046994.6,N,0.0,0.0
1487413795.9,286046991.0,N,0.0,0.0
1487413815.7,286046991.3,N,0.0,0.0
1487413835.6,286046989.8,N,0.0,0.0
1487413855.4,286046987.1,N,0.0,0.0
1487413875.2,286046987.5,N,0.0,0.0
1487413895.1,286046987.7,N,0.0,0.0
1487413896.0,286046987.7,N,0.0,0.0
1487413915.8,286046987.5,N,0.0,0.0
1487413935.6,286046985.7,N,0.0,0.0
1487413955.5,286046985.7,N,0.0,0.0
1487413975.3,286046987.8,N,0.0,0.0
1487413995.1,286046988.3,N,0.0,0.0
1487414015.9,286046985.1,N,0.0,0.0
1487414035.7,286046982.5,N,0.0,0.0
1487414055.5,286046986.7,N,0.0,0.0
1487414075.3,286046982.3,N,0.0,0.0
1487414095.2,286046981.0,N,0.0,0.0
1487414115.0,286046981.0,N,0.0,0.0
1487414115.9,286046981.0,N,0.0,0.0
1487414135.7,286046979.3,N,0.0,0.0
1487414155.2,286046980.3,N,0.0,0.0
1487414175.0,286046976.2,N,0.0,0.0
1487414175.9,286046976.2,N,0.0,0.0
1487414195.8,286046976.6,N,0.0,0.0
1487414215.6,286046977.2,N,0.0,0.0
1487414235.4,286046976.5,N,0.0,0.0
1487414255.3,286046974.7,N,0.0,0.0
1487414275.1,286046972.7,N,0.0,0.0
1487414276.0,286046972.7,N,0.0,0.0
1487414295.8,286046972.0,N,0.0,0.0
1487414315.7,286046972.3,N,0.0,0.0
1487414335.5,286046970.1,Y,0.0,0.0
1487414355.3,286046978.4,N,0.0,0.0
1487414375.2,286046975.9,N,0.0,0.0
1487414395.9,286046977.9,N,0.0,0.0
1487414415.7,286046975.8,N,0.0,0.0
1487414435.6,286046976.8,N,0.0,0.0
1487414455.4,286046972.5,N,0.0,0.0
1487414475.2,286046977.0,N,0.0,0.0
1487414495.1,286046977.1,N,0.0,0.0
1487414496.0,286046977.1,N,0.0,0.0
1487414515.8,286046976.8,N,0.0,0.0
1487414535.6,286046972.8,N,0.0,0.0
1487414555.5,286046971.2,N,0.0,0.0
1487414575.3,286046970.2,N,0.0,0.0
1487414595.1,286046967.8,Y,0.0,0.0
1487414615.9,286046980.6,N,0.0,0.0
1487414635.7,286046981.3,N,0.0,0.0
1487414655.5,286046981.4,N,0.0,0.0
1487414675.4,286046980.2,N,0.0,0.0
1487414695.2,286046980.4,N,0.0,0.0
1487414715.2,286046980.4,N,0.0,0.0
1487414735.0,286046978.3,N,0.0,0.0
1487414735.9,286046978.3,N,0.0,0.0
1487414755.7,286046975.7,N,0.0,0.0
1487414775.6,286046975.0,N,0.0,0.0
1487414795.0,286046974.3,N,0.0,0.0
1487414795.9,286046974.3,N,0.0,0.0
1487414815.8,286046974.2,Y,0.0,0.0
1487414835.6,286046991.8,N,0.0,0.0
1487414855.4,286046990.3,N,0.0,0.0
1487414875.6,286046991.6,N,0.0,0.0
1487414895.4,286046989.9,N,0.0,0.0
1487414915.2,286046991.6,N,0.0,0.0
1487414935.1,286046987.3,N,0.0,0.0
1487414936.0,286046987.3,N,0.0,0.0
1487414955.8,286046991.6,N,0.0,0.0
1487414975.6,286046989.9,N,0.0,0.0
1487414995.5,286046989.1,N,0.0,0.0
1487415015.3,286046988.2,N,0.0,0.0
1487415035.1,286046987.5,N,0.0,0.0
1487415055.8,286046985.9,N,0.0,0.0
1487415075.7,286046988.3,N,0.0,0.0
1487415095.5,286046985.5,N,0.0,0.0
1487415115.3,286046985.3,N,0.0,0.0
1487415135.2,286046982.4,N,0.0,0.0
1487415155.0,286046982.5,N,0.0,0.0
1487415155.9,286046982.5,N,0.0,0.0
1487415175.7,286046984.2,N,0.0,0.0
1487415195.6,286046984.9,N,0.0,0.0
1487415215.4,286046983.8,N,0.0,0.0
1487415235.2,286046982.6,N,0.0,0.0
1487415255.1,286046981.7,Y,0.0,0.0
1487415256.0,286046981.7,Y,0.0,0.0
1487415275.8,286047021.5,Y,0.0,0.0
1487415295.7,286047040.2,Y,0.0,0.0
1487415315.5,286047059.5,Y,0.0,0.0
1487415335.3,286047077.8,Y,0.0,0.0
1487415355.2,286047093.0,Y,0.0,0.0
1487415375.0,286047110.1,Y,0.0,0.0
1487415375.9,286047110.1,Y,0.0,0.0
1487415395.8,286047137.4,Y,0.0,0.0
1487415415.6,286047150.3,Y,0.0,0.0
1487415435.5,286047160.7,Y,0.0,0.0
1487415455.3,286047166.5,Y,0.0,0.0
1487415475.1,286047173.2,Y,0.0,0.0
1487415495.9,286047172.9,Y,0.0,0.0
1487415515.7,286047176.6,Y,0.0,0.0
1487415535.6,286047174.2,Y,0.0,0.0
1487415555.4,286047171.5,N,0.0,0.0
1487415575.2,286047171.0,N,0.0,0.0
1487415595.1,286047171.7,N,0.0,0.0
1487415596.0,286047171.7,N,0.0,0.0
